www.pogodaiklimat.ru

Погода и климат >> Архив погоды >> Кувейт >> Эль-Джахра


ПОГОДА в Эль-Джахра

  • Прогноз погоды в Эль-Джахра
  • Монитор погоды в Эль-Джахра

АРХИВ ПОГОДЫ в Эль-Джахра

Время (UTC), дата Ветер
(напр.,м/с)
 
Видим.   Явления Облачность Т
(С)
Тd
(С)
f
(%)
Тe
(С)
Тes
(С)
Комфортность P
(гПа)
Po
(гПа)
Тmin
(С)
Tmax
(С)
R
(мм)
R24
(мм)
S
(см)
00 16.09 З 4-7
{7}
н/о н/о +31.7 +5.1 19 +30 +30 жарко 1006.7 1000.5
03 16.09 ЮЗ 2-3
{6}
н/о н/о +30.1 +6.4 23 +29 +29 жарко 1007.6 1001.4
06 16.09 Ю 2-3
{6}
н/о н/о +39.4 +3.2 11 +36 +36 очень
жарко
1008.5 1002.5
09 16.09 В 1-5
{5}
н/о н/о +44.3 +5.0 9 +41 +41 опасность
перегрева
1006.8 1000.9
12 16.09 СВ 5-7
{8}
н/о н/о +44.0 +2.6 8 +41 +41 опасность
перегрева
1005.3 999.4
15 16.09 СВ 3-3
{7}
н/о н/о +39.4 +4.4 12 +36 +36 очень
жарко
1005.5 999.5
18 16.09 Ю 1-2
{7}
н/о н/о +33.9 +11.8 26 +34 +34 очень
жарко
1006.8 1000.7
21 16.09 З 2-3
{3}
н/о н/о +30.4 +10.5 29 +30 +30 жарко 1006.2 1000.0 +30.0 +45.0
00 17.09 З 3-4
{4}
н/о н/о +29.8 +9.5 28 +29 +29 жарко 1005.6 999.4
03 17.09 ЮЗ 2-2
{4}
н/о н/о +28.5 +8.8 29 +28 +28 жарко 1006.6 1000.3
06 17.09 С 1-3
{4}
н/о н/о +39.3 +4.2 12 +36 +36 очень
жарко
1007.4 1001.4
09 17.09 В 1-3
{5}
н/о н/о +44.8 +3.4 8 +42 +42 опасность
перегрева
1005.6 999.7
12 17.09 СВ 4-6
{7}
н/о н/о +46.2 -2.1 5 +42 +42 опасность
перегрева
1003.8 997.9
15 17.09 ЮВ 2-4
{6}
н/о н/о +40.7 +1.3 9 +37 +37 очень
жарко
1003.6 997.6
18 17.09 З 1-2
{6}
н/о н/о +36.3 +1.7 11 +33 +33 жарко 1005.5 999.4
21 17.09 З 3-4
{4}
н/о н/о +34.1 -0.6 11 +31 +31 жарко 1005.3 999.2 +28.0 +46.5
00 18.09 ЮЗ 1-2
{4}
н/о н/о +32.6 +0.6 13 +29 +29 жарко 1005.0 998.8
03 18.09 ЮЗ 2-3
{3}
н/о н/о +30.5 +3.2 18 +28 +28 жарко 1006.4 1000.2
06 18.09 СЗ 2-5
{5}
н/о н/о +38.6 +6.3 14 +36 +36 очень
жарко
1007.6 1001.5
09 18.09 СЗ 4-8
{9}
н/о н/о +46.2 -0.6 6 +42 +42 опасность
перегрева
1005.9 1000.0
12 18.09 СЗ 2-6
{10}
н/о н/о +47.0 -3.7 4 +43 +43 опасность
перегрева
1004.5 998.6
15 18.09 С 2-6
{7}
н/о н/о +43.8 -0.7 6 +40 +40 очень
жарко
1005.3 999.4
18 18.09 СЗ 3-9
{9}
н/о н/о +40.1 +4.5 11 +37 +37 очень
жарко
1007.3 1001.3
21 18.09 СВ 4-8
{9}
н/о н/о +36.0 +4.1 14 +33 +33 жарко 1007.3 1001.2 +29.7 +47.5
00 19.09 З 4-9
{10}
н/о н/о +33.4 +1.1 13 +30 +30 жарко 1007.1 1000.9
03 19.09 СЗ 4-9
{10}
н/о н/о +32.7 -1.1 11 +29 +29 жарко 1008.3 1002.1
06 19.09 С 2-4
{12}
н/о н/о +37.2 +0.4 10 +34 +34 очень
жарко
1010.2 1004.1
09 19.09 СЗ 4-12
{13}
н/о н/о +43.5 -12.6 3 +39 +39 очень
жарко
1008.3 1002.3
12 19.09 С 6-11
{13}
н/о н/о +44.5 -3.1 5 +40 +40 очень
жарко
1006.7 1000.8
15 19.09 СЗ 3-9
{12}
н/о н/о +41.2 -0.2 8 +37 +37 очень
жарко
1007.4 1001.4
18 19.09 СЗ 3-6
{12}
н/о н/о +38.1 +1.4 10 +35 +35 очень
жарко
1008.6 1002.5
21 19.09 З 4-7
{7}
н/о н/о +34.1 +2.1 13 +31 +31 жарко 1008.0 1001.9 +32.5 +45.3
00 20.09 З 4-6
{8}
н/о н/о +31.8 +1.8 15 +29 +29 жарко 1007.2 1001.0
03 20.09 З 4-5
{7}
н/о н/о +29.2 +1.8 17 +27 +27 жарко 1007.5 1001.3
06 20.09 З 7-13
{13}
н/о н/о +38.2 -2.5 8 +34 +34 очень
жарко
1007.1 1001.0
09 20.09 0 н/о н/о +42.2 -4.3 5 1005.2 999.2
12 20.09 0 н/о н/о +43.7 -6.1 4 1003.6 997.7
15 20.09 0 н/о н/о +39.0 +3.8 11 1004.0 998.0
18 20.09 Ю 1-1 н/о н/о +32.3 +11.9 29 +33 +33 жарко 1005.5 999.3
21 20.09 З 1-2
{3}
н/о н/о +30.3 +0.9 15 +28 +28 жарко 1004.6 998.4 +29.0 +44.7
00 21.09 З 2-3
{3}
н/о н/о +30.1 +3.7 19 +28 +28 жарко 1003.7 997.5
03 21.09 СЗ 1-2
{4}
н/о н/о +29.4 +5.4 22 +28 +28 жарко 1004.9 998.7
06 21.09 СВ 3-4
{5}
н/о н/о +33.5 +5.8 18 +31 +31 жарко 1006.0 999.9
09 21.09 С 3-5
{5}
н/о н/о +37.5 +3.0 12 +34 +34 очень
жарко
1004.4 998.3
12 21.09 В 5-7
{7}
н/о н/о +40.5 +4.9 11 +37 +37 очень
жарко
1002.9 996.9
15 21.09 В 3-4
{7}
н/о н/о +35.4 +15.2 30 +37 +37 очень
душно
1003.0 996.9
18 21.09 Ю 1-2
{7}
н/о н/о +31.9 +12.9 31 +33 +33 жарко 1004.5 998.3
21 21.09 Ю 2-3
{3}
н/о н/о +28.5 +17.6 52 +33 +33 очень
душно
1004.0 997.8 +27.8 +40.8
00 22.09 Ю 1-2
{6}
н/о н/о +26.9 +13.6 44 +29 +29 жарко 1003.8 997.5
03 22.09 Ю 1-1
{3}
н/о н/о +25.9 +8.6 33 +26 +26 жарко 1005.6 999.3
06 22.09 ЮВ 2-2
{3}
н/о н/о +34.2 +10.8 24 +34 +34 очень
жарко
1007.1 1001.0
09 22.09 В 2-4
{4}
н/о н/о +40.8 +4.4 11 +38 +38 очень
жарко
1005.6 999.6
12 22.09 С 3-5
{5}
н/о н/о +41.6 +3.5 10 +38 +38 очень
жарко
1004.3 998.3
15 22.09 СВ 2-3
{5}
н/о н/о +37.6 +9.4 18 +36 +36 очень
жарко
1004.6 998.5
21 22.09 ЮЗ 1-2
{3}
н/о н/о +30.5 +16.6 43 +34 +34 очень
душно
1006.5 1000.3 +25.9 +42.4

 

Местоположение метеостанции Эль-Джахра (Кувейт): широта 29.32 долгота 47.67 высота над уровнем моря 55 м.

В архиве по умолчанию представлена погода в Эль-Джахра за последнюю неделю. Архивные данные за месяц целиком и за предыдущие месяцы, начиная с января 2011 года, Вы можете получить, выбрав интересующий диапазон дат из раскрывающегося списка и нажав кнопку "Ввод!".


*Определитесь, кто Вы:
робот инопланетянин человек

Внимание! Время в таблицах - всемирное. Для получения местного времени необходимо прибавить поправку, которая равна 3 ч.

Смотрите также архив погоды в соседних городах и на ближайших метеорологических станциях:

Погода в Сулайбии (Кувейт) (7 км)
Погода на Экспериментальной ферме (Кувейт) (26 км)
Погода в Минагише (Кувейт) (31 км)
Погода в Эль-Кувейте (Кувейт) (31 км)
Погода на Метеостанции Jal Aliyah (Кувейт) (33 км)
Погода в Кувейт Сити (Кувейт) (37 км)
Погода в Аль-Шуаиба (Кувейт) (42 км)
Погода на Метеостанции Sabriyah (Кувейт) (51 км)
Погода Остров Файлака (Кувейт) (61 км)
Погода на Метеостанции Mintribah (Кувейт) (63 км)

Пояснения к столбцам:

Ветер - указаны скорость ветра в м/с - средняя за 10 мин, порывы в срок и между сроками (в фигурных скобках) и направление, откуда дует ветер: С - северный, СВ - северо-восточный, В - восточный, ЮВ - юго-восточный, Ю - южный, ЮЗ - юго-западный, З - западный, СЗ - северо-западный.
Видимость - горизонтальная дальность видимости в метрах или километрах. При видимости от 1 до 10 км при отсутствии осадков обычно наблюдается дымка, при ухудшении видимости до 1 км и менее - туман. В сухую погоду видимость может ухудшаться дымом, пылью или мглою.
Явления - указаны атмосферные явления, наблюдавшиеся в срок или в последний час перед сроком; фигурными скобками обозначены явления, наблюдавшиеся между сроками (за 1-3 часа до срока); квадратными скобками обозначены град или гололедные отложения с указанием их диаметра в мм.
Облачность - указаны через наклонную черту общая и нижняя облачность в баллах и высота нижней границы облаков в метрах; квадратными скобками обозначены формы облаков: Ci - перистые, Cs - перисто-слоистые, Cc - перисто-кучевые, Ac - высококучевые, As - высокослоистые, Sc - слоисто-кучевые, Ns - слоисто-дождевые, Cu - кучевые, Cb - кучево-дождевые. Подробнее классификацию облаков см. в Атласе облаков (PDF).
T - Температура воздуха - температура, измеренная на высоте 2 м над землей.
Td - Температура точки росы - температура, при понижении до которой содержащийся в воздухе водяной пар достигнет насыщения.
f - Относительная влажность воздуха - влажноcть воздуха, измеренная на высоте 2 м над землей.
Te - Эффективная температура - температура, которую ощущает одетый по сезону человек в тени. Характеристика душности погоды. При расчете учитывается влияние влажности воздуха и скорости ветра на теплоощущения человека.
Tes - Эффективная температура на солнце - температура, которую ощущает человек, с поправкой на солнечный нагрев. Характеристика знойности погоды. Зависит от высоты солнца над горизонтом, облачности и скорости ветра. Ночью, в пасмурную погоду, а также при ветре 12 м/с и более поправка равна нулю.
P - Атмосферное давление - приведенное к уровню моря атмосферное давление.
Po - Атмосферное давление - измеренное на уровне метеостанции атмосферное давление.
Tmin - Минимальная температура - минимум температуры воздуха на высоте 2 м над землей.
Tmax - Максимальная температура - максимум температуры воздуха на высоте 2 м над землей.
R - Количество осадков - Количество выпавших осадков за период времени, мм. При наведении курсора мыши на число - период времени, за который выпало указанное количество осадков.
R24 - Количество осадков - Количество выпавших осадков за 24 часа, мм.
S - Снежный покров - Высота снежного покрова, см. При наведении курсора мыши на число - состояние снежного покрова и степень покрытия местности в баллах.